Location: Cabeza de los Veneras
(40.2000°N, 5.2000°W)
Time: 01:38:10
(UTC+00:00)

CENTAUR R/B - Pass Details

Date: 18 April 2024
Orbit: 669 x 1515 km, 63.4° (Epoch: 25 May)

Event Time Altitude Azimuth Distance (km) Brightness Sun altitude
Rises 21:31:16 0° 328° (NNW) 4,137 7.0 -25.4°
Reaches altitude 10° 21:34:13 10° 338° (NNW) 3,287 6.1 -25.8°
Maximum altitude 21:41:40 36° 42° (NE) 2,103 4.2 -26.8°
Enters shadow 21:45:00 28° 81° (E) 2,466 4.3 -27.3°
